UAL555 KEWR-KPHX

Flight info

Callsign UAL555
Flight time N/A
Altitude 34000
Route ZIMMZ Q42 MIKYG Q480 AIR/N0473F360 J110 STL BUM ICT TOTOE/N0462F380 FTI BUKKO ZUN EAGUL6
Aircraft B739/M-SDE2E3FGHIRWXY/LB1

Departure

Time N/A
Airport Newark Liberty International Airport (KEWR)

Arrival

Time 2026-05-08 00:18
Airport Phoenix Sky Harbor International Airport (KPHX)
Time Latitude Longitude Altitude Speed Heading
2026-05-07 23:53 36.55539 -102.50875 33863 ft 438 kts 250°
2026-05-07 23:54 36.36975 -103.07182 33966 ft 442 kts 249°
2026-05-07 23:54 36.17922 -103.63883 33935 ft 449 kts 249°
2026-05-07 23:55 35.98298 -104.21062 33961 ft 454 kts 249°
2026-05-07 23:55 35.78192 -104.78705 33938 ft 459 kts 248°
2026-05-07 23:56 35.69620 -105.02838 34049 ft 460 kts 248°
2026-05-07 23:56 35.66436 -105.12207 34068 ft 459 kts 255°
2026-05-07 23:56 35.65475 -105.19905 34086 ft 455 kts 269°
2026-05-07 23:56 35.64580 -105.49910 33936 ft 459 kts 269°
2026-05-07 23:57 35.62098 -106.12821 34062 ft 464 kts 269°
2026-05-07 23:57 35.60772 -106.44541 33949 ft 468 kts 269°
2026-05-07 23:57 35.59275 -106.76421 33919 ft 468 kts 269°
2026-05-07 23:58 35.56152 -107.40499 34012 ft 472 kts 269°
2026-05-07 23:58 35.53235 -107.93824 34003 ft 476 kts 269°
2026-05-07 23:59 35.51818 -108.01789 33987 ft 483 kts 250°
2026-05-07 23:59 35.45937 -108.14344 33990 ft 486 kts 241°
2026-05-07 23:59 35.18291 -108.71386 33947 ft 489 kts 241°
2026-05-08 00:00 34.95547 -109.17683 33927 ft 493 kts 244°
2026-05-08 00:00 34.75428 -109.73298 33987 ft 499 kts 247°
2026-05-08 00:01 34.59696 -110.15388 33970 ft 502 kts 248°
2026-05-08 00:01 34.56796 -110.23147 33228 ft 504 kts 248°
2026-05-08 00:01 34.53889 -110.30873 31141 ft 506 kts 247°
2026-05-08 00:02 34.51018 -110.38488 30400 ft 481 kts 247°
2026-05-08 00:02 34.48310 -110.45653 29726 ft 459 kts 247°
2026-05-08 00:02 34.45667 -110.52631 28488 ft 451 kts 247°
2026-05-08 00:02 34.43076 -110.59460 27388 ft 442 kts 247°
2026-05-08 00:03 34.40528 -110.66164 26330 ft 434 kts 247°
2026-05-08 00:03 34.38028 -110.72732 25307 ft 426 kts 246°
2026-05-08 00:03 34.35531 -110.79184 24300 ft 420 kts 242°
2026-05-08 00:03 34.31760 -110.84475 23358 ft 412 kts 225°
2026-05-08 00:04 34.27809 -110.89422 22248 ft 407 kts 226°
2026-05-08 00:04 34.24007 -110.94295 21230 ft 400 kts 227°
2026-05-08 00:04 34.20229 -110.99173 20246 ft 394 kts 227°
2026-05-08 00:04 34.16507 -111.03976 19295 ft 389 kts 227°
2026-05-08 00:05 34.12877 -111.08649 18752 ft 372 kts 227°
2026-05-08 00:05 34.09364 -111.13162 17857 ft 367 kts 227°
2026-05-08 00:05 34.05886 -111.17625 16887 ft 363 kts 227°
2026-05-08 00:05 34.02441 -111.22042 16000 ft 359 kts 227°
2026-05-08 00:06 33.99045 -111.26390 15090 ft 353 kts 227°
2026-05-08 00:06 33.95698 -111.30673 14209 ft 349 kts 228°
2026-05-08 00:06 33.92397 -111.34892 13288 ft 344 kts 228°
2026-05-08 00:06 33.90090 -111.37836 12620 ft 340 kts 229°
2026-05-08 00:07 33.88499 -111.39863 12481 ft 327 kts 228°
2026-05-08 00:07 33.86828 -111.41683 12189 ft 322 kts 218°
2026-05-08 00:07 33.85001 -111.43210 11843 ft 319 kts 216°
2026-05-08 00:07 33.83171 -111.44701 11464 ft 317 kts 216°
2026-05-08 00:08 33.81362 -111.46212 11065 ft 316 kts 218°
2026-05-08 00:08 33.79566 -111.47739 10642 ft 316 kts 217°
2026-05-08 00:08 33.77778 -111.49271 10213 ft 316 kts 219°
2026-05-08 00:08 33.76004 -111.50794 10006 ft 308 kts 218°
2026-05-08 00:09 33.74285 -111.52270 9793 ft 298 kts 219°
2026-05-08 00:09 33.72641 -111.53680 9421 ft 289 kts 219°
2026-05-08 00:09 33.71015 -111.55079 9090 ft 287 kts 219°
2026-05-08 00:09 33.69413 -111.56456 8932 ft 278 kts 219°
2026-05-08 00:10 33.67864 -111.57784 8780 ft 269 kts 219°
2026-05-08 00:10 33.66369 -111.59064 8675 ft 259 kts 219°
2026-05-08 00:10 33.64929 -111.60301 8567 ft 250 kts 220°
2026-05-08 00:10 33.63520 -111.61498 8341 ft 247 kts 219°
2026-05-08 00:11 33.62119 -111.62669 8082 ft 245 kts 218°
2026-05-08 00:11 33.60718 -111.63840 7800 ft 245 kts 218°
2026-05-08 00:11 33.59329 -111.65002 7542 ft 241 kts 218°
2026-05-08 00:11 33.57968 -111.66138 7240 ft 236 kts 218°
2026-05-08 00:12 33.56633 -111.67252 6958 ft 233 kts 218°
2026-05-08 00:12 33.55318 -111.68355 6681 ft 228 kts 219°
2026-05-08 00:12 33.54040 -111.69435 6425 ft 223 kts 218°
2026-05-08 00:12 33.52777 -111.70505 6133 ft 224 kts 217°
2026-05-08 00:13 33.51498 -111.71586 5851 ft 226 kts 218°
2026-05-08 00:13 33.50214 -111.72669 5569 ft 226 kts 217°
2026-05-08 00:13 33.48931 -111.73752 5300 ft 226 kts 217°
2026-05-08 00:13 33.47642 -111.74838 5017 ft 227 kts 217°
2026-05-08 00:14 33.46509 -111.76087 4723 ft 223 kts 238°
2026-05-08 00:14 33.45756 -111.77671 4510 ft 214 kts 242°
2026-05-08 00:14 33.45023 -111.79223 4247 ft 209 kts 241°
2026-05-08 00:14 33.44319 -111.80711 4000 ft 201 kts 244°
2026-05-08 00:15 33.44064 -111.82294 3747 ft 192 kts 275°
2026-05-08 00:15 33.44138 -111.83839 3525 ft 181 kts 265°
2026-05-08 00:15 33.44075 -111.85294 3314 ft 170 kts 269°
2026-05-08 00:15 33.44076 -111.86680 3117 ft 165 kts 269°
2026-05-08 00:16 33.44078 -111.87990 2899 ft 153 kts 270°
2026-05-08 00:16 33.44079 -111.89272 2713 ft 156 kts 268°
2026-05-08 00:16 33.44082 -111.90583 2506 ft 158 kts 270°
2026-05-08 00:16 33.44086 -111.91890 2322 ft 161 kts 268°
2026-05-08 00:17 33.44084 -111.93209 2123 ft 155 kts 269°
2026-05-08 00:17 33.44083 -111.94500 1922 ft 158 kts 271°
2026-05-08 00:17 33.44084 -111.95830 1735 ft 161 kts 270°
2026-05-08 00:17 33.44082 -111.97172 1521 ft 161 kts 273°
2026-05-08 00:18 33.44080 -111.98519 1300 ft 162 kts 271°
2026-05-08 00:18 33.44088 -111.99849 1133 ft 154 kts 271°
2026-05-08 00:18 33.44084 -112.00823 1128 ft 54 kts 270°
2026-05-08 00:18 33.44046 -112.01071 1132 ft 17 kts 217°
2026-05-08 00:19 33.43923 -112.01120 1120 ft 9 kts 162°
2026-05-08 00:19 33.43872 -112.01057 1124 ft 16 kts 136°
2026-05-08 00:19 33.43800 -112.00983 1118 ft 7 kts 135°
2026-05-08 00:19 33.43788 -112.00942 1122 ft 2 kts 98°
2026-05-08 00:20 33.43788 -112.00940 1122 ft 0 kts 98°